COSMOS 2491 DEB *, 45128

Orbit data source: Space-Track

COSMOS 2491 DEB *, 45128 is space debris in LEO originally from a launch on Wed, 25 Dec 2013 UTC launched from the Plesetsk Missile And Space Complex (PKMTR). Debris objects in space refer to the collection of defunct objects orbiting the Earth. Examples of debris include non-operational satellites, rocket bodies, and fragments generated from explosions, collisions, or faulty payload assembly.

Loading next visibility...
Identifier
45128, 2013-076AA
Orbit
LEO
Last TLE update
3 days ago
Origin
Manufacturer
TsNIIKhM
Mission
Spacecraft
Bus & Motor
Unknown
Mass
Unknown
Launch date (UTC)
2013-12-25 (11 years ago)
Launch vehicle
Unknown
Launch site
Plesetsk Missile And Space Complex (PKMTR)
Object type
Payload
Rocket body
Debris
Shape & HBR
Unknown
Radar Cross Section
Small (<0.1 m²)

Expand to show TLE details & history

TLE from 3 days ago
0 COSMOS 2491 DEB *
1 45128U 13076AA  25126.08450839  .00010638  00000-0  34975-2 0  9998
2 45128  81.2086  57.1724 0027273  19.7193 340.5041 14.37976355  3431
Epoch: 2025-05-06T02:01Z
Definitive object data (Epoch: 2025-05-06T02:01:41.524Z)
Latitude
-0.00003°
Longitude
162.56059°
Altitude
749.766 km
Speed
7.489 km/s
True Right ascension
03h 48m 41s
True Declination
0° 00' 00"
Sunlit
Object was in daylight at TLE epoch
Visualization TLE readout
Latitude
36.30436°
Longitude
-27.30192°
Altitude
783.208 km
Speed
7.459 km/s
Apparent Right ascension
11h 17m 18s
Apparent Declination
2° 43' 23"
Sunlit
Object is in full shadow
Visualization observer readout
Local Sidereal Time
17:19:55
Azimuth
272.506° WNW
Elevation
1.248°
Doppler factor
1
Orbital elements
Apogee altitude
781.805 km
Perigee altitude
742.857 km
Semi-major axis
7,140.468 km
Eccentricity
0.0027273
Inclination
81.2086°
RAAN
57.1724°
Arg. of periapsis
19.7193°
True anomaly
340.39946°
Mean anomaly
340.5041°
Eccentric anomaly
340.45181°
Mean motion
3.59711 °/min
BSTAR
0.0034975
Orbital period
100.08 mins
Loading maneuver chart data...
Loading SW <> Apogee altitude chart data...
Loading historical data...
Loading historical data...
Loading historical data...
Loading historical data...
Loading historical data...
Loading historical data...
Loading historical data...

COSMOS 2491 DEB * Visibility forecast

Observer location: undefined°, undefined°

Span
Click to sort rows by Start time (UTC) header in descending order
Start Az.
Max El. time (UTC)
Max El. Az.
Max El.
End time (UTC)
End Az.
6 mins2025-05-09 18:39:37.984Z130.258° SE2025-05-09 18:42:37.984Z93.295° ESE17.849°2025-05-09 18:45:37.984Z51.718° ENE
7 mins2025-05-09 20:20:37.984Z221.245° SW2025-05-09 20:23:37.984Z280.659° WNW34.744°2025-05-09 20:27:37.984Z351.728° N
8 mins2025-05-10 06:48:37.984Z348.773° N2025-05-10 06:51:37.984Z332.885° NNW43.844°2025-05-10 06:56:37.984Z174.767° S
|